Location: Harwich
(41.7160°N, 69.9939°W)
Time: 20:17:34
(UTC+02:00)

EO-79 - Visible Passes

Search period start: 23 June 2025 00:00
Search period end: 03 July 2025 00:00
Orbit: 527 x 541 km, 98.1° (Epoch: 22 June)

Date Brightness Start Highest point End Pass type
(mag) Time Alt. Az. Time Alt. Az. Time Alt. Az.
23 Jun ? 10:16:50 10° ENE 10:18:16 12° E 10:19:42 10° ESE visible
01 Jul ? 10:36:13 10° NE 10:39:04 19° E 10:41:53 10° SE visible
02 Jul ? 10:27:26 10° ENE 10:29:44 15° E 10:32:01 10° SE visible
